Wind_Speed
37 41 39 34 32 32 32 31 30 31 32 32 33 33 31 30 28 26 26 26 25 25 25 24 24 24 23 22 22 21 21 21 22 22 22 22 22 21 21 21 22 22 22 22 22 21 20 20 21 22 22 23 24 24 25 25 25 25 24 24 23 23 23 23 23 23 23 24 24 25 26 26 27 28 28 28 28 28 28 28 28 28 28 29 30 31 31
24 31 38 39 37 35 34 34 33 33 33 33 34 33 33 33 32 31 31 29 27 27 27 26 26 25 25 24 24 24 23 23 23 23 24 24 25 24 24 24 25 25 25 24 23 23 22 22 23 24 24 25 26 26 26 27 27 28 28 27 27 27 27 28 28 28 28 28 29 29 30 30 30 31 31 32 32 32 32 33 32 32 32 33 33 34 34
18 19 25 33 39 39 38 37 36 35 35 35 34 34 34 34 34 34 34 33 32 31 29 28 28 27 27 26 26 26 26 26 26 26 27 28 28 28 28 28 29 29 29 28 27 27 26 25 25 26 27 27 28 28 28 29 29 30 31 31 31 32 33 33 33 33 34 34 34 34 35 35 35 35 35 35 36 36 37 37 37 38 38 38 38 38 38
21 19 18 22 29 35 39 40 40 39 38 38 37 36 36 36 37 37 36 36 36 35 33 32 32 31 30 30 29 29 30 30 31 31 32 32 32 32 32 32 32 33 33 33 32 32 31 30 30 30 31 31 32 32 32 32 33 33 34 35 36 36 37 37 38 38 38 39 39 39 39 40 40 40 39 39 40 40 40 41 42 42 42 43 42 41 40
23 22 21 21 21 25 30 34 37 39 40 40 40 40 40 40 40 40 40 40 39 38 37 36 35 34 34 33 33 33 34 35 36 38 39 38 36 35 35 35 35 36 36 37 37 37 36 36 35 35 35 35 35 36 36 36 36 37 37 38 39 39 40 41 41 42 42 42 43 43 43 43 43 43 43 43 42 41 41 41 42 41 41 41 41 40 41
24 22 22 23 24 25 24 24 28 33 35 36 37 39 40 40 41 43 43 43 43 41 40 39 38 37 36 36 36 36 37 38 38 39 38 37 36 35 35 37 37 37 37 38 38 39 39 38 38 38 39 39 39 39 39 40 41 41 42 42 42 43 43 44 44 45 46 46 46 46 46 45 44 44 43 42 40 39 40 41 42 42 42 41 41 41 43
24 22 22 25 27 26 24 22 24 26 28 29 30 32 34 36 38 40 42 43 43 43 42 42 41 41 40 40 40 40 40 40 40 39 37 37 37 37 37 38 38 37 37 38 39 39 40 41 42 42 43 43 43 44 44 44 45 45 46 46 46 46 47 47 48 49 49 49 49 49 47 46 44 41 40 40 40 40 40 41 41 42 42 43 43 42 42
25 23 24 25 24 23 23 24 25 26 26 27 28 28 29 30 32 34 36 37 39 40 41 42 42 43 43 42 41 40 40 41 42 43 42 43 42 41 41 42 41 39 39 40 42 43 44 45 45 45 46 47 48 48 48 49 49 49 49 49 49 49 48 48 48 48 47 47 47 46 45 44 42 41 42 42 42 42 41 41 41 42 43 45 44 41 37
26 25 26 24 22 22 24 25 25 26 26 27 27 27 27 28 29 30 30 31 32 33 34 36 37 38 39 40 42 41 40 40 41 41 42 44 44 41 38 39 39 40 41 42 44 45 46 47 47 48 49 50 50 51 51 51 52 52 52 52 51 51 50 48 47 46 45 45 44 44 44 44 44 44 44 44 43 42 42 43 43 44 45 46 45 43 40
27 28 29 27 24 24 24 24 26 27 28 28 29 28 28 28 29 30 30 30 29 29 30 30 31 32 33 35 37 39 40 41 41 41 42 43 44 42 39 37 35 36 37 38 39 40 42 43 45 46 47 49 50 51 52 53 54 54 54 54 53 53 52 51 50 49 49 48 46 46 45 46 45 45 44 44 43 43 44 45 45 45 45 46 45 46 47
29 28 29 29 28 27 25 26 27 28 28 29 30 31 30 30 30 30 30 30 30 30 30 30 31 33 34 35 35 36 38 39 41 42 44 45 45 44 45 44 43 43 43 43 42 42 43 45 46 48 50 52 53 54 55 56 56 57 57 56 56 55 54 54 54 54 54 53 52 51 50 49 47 46 45 44 45 45 47 48 49 47 46 47 46 46 48
29 28 27 27 27 26 26 27 29 30 30 30 31 32 31 30 30 30 30 31 31 32 32 33 33 35 36 36 36 37 38 39 41 42 44 46 47 48 49 50 51 52 52 53 53 53 54 54 55 56 57 58 58 59 59 60 60 60 60 59 59 59 58 58 58 58 58 59 59 58 57 56 54 53 52 51 52 53 54 55 54 52 49 49 49 47 47
31 30 29 28 27 25 25 27 29 30 30 30 31 32 31 30 31 32 32 33 34 34 35 36 36 36 36 36 37 38 39 40 41 43 44 46 48 49 51 52 53 55 56 57 57 58 58 59 59 60 60 60 61 61 61 62 62 62 62 62 62 62 62 62 61 61 62 62 62 62 62 62 62 61 61 61 61 61 60 60 58 56 54 53 52 49 47
34 34 34 34 33 31 30 32 33 33 33 33 33 32 32 32 33 34 34 35 36 37 38 38 38 38 38 38 39 39 40 41 42 43 45 46 48 49 51 52 53 55 56 57 58 58 59 60 60 61 61 61 62 62 63 63 64 64 64 64 64 65 65 65 64 64 64 64 64 64 64 64 63 63 63 62 62 61 60 60 60 59 58 58 58 56 53
36 36 38 40 41 39 38 38 39 39 38 38 37 37 37 37 37 37 38 39 39 40 40 41 41 41 41 41 42 42 43 44 45 46 47 48 49 50 52 53 54 55 56 57 57 58 59 60 60 61 62 62 63 64 64 65 65 65 65 66 66 66 66 66 66 67 67 66 66 65 65 64 64 63 63 62 60 59 58 57 58 58 58 59 61 62 61
36 36 38 40 41 41 41 41 41 40 40 40 40 40 40 41 41 41 41 41 41 42 42 42 42 43 43 44 44 45 46 46 47 48 49 50 51 52 53 54 55 56 57 58 59 60 60 61 62 63 64 64 65 65 65 66 66 66 66 66 66 65 65 65 66 66 67 68 68 67 67 66 65 64 63 62 60 58 57 57 56 56 57 57 58 61 62
37 37 38 39 39 40 42 42 42 42 42 42 42 41 41 42 42 42 42 42 42 43 43 44 44 45 45 46 47 47 48 49 49 50 51 52 53 54 55 55 56 57 58 59 60 61 62 62 63 63 64 64 64 64 64 64 64 64 64 64 64 63 63 64 65 66 67 67 68 68 68 67 66 65 64 63 61 59 59 60 58 56 56 55 55 56 57
38 38 39 39 39 40 41 42 43 43 43 43 43 43 43 42 43 43 43 43 43 43 44 44 45 46 47 47 48 49 50 50 51 52 52 53 54 54 55 56 56 57 57 58 58 59 59 60 60 61 61 61 61 61 62 62 62 63 63 64 65 66 66 67 68 69 69 69 69 69 69 69 69 67 66 65 63 61 61 60 58 56 55 54 52 51 51
36 37 38 39 39 40 40 40 41 42 42 42 42 41 41 41 41 42 42 43 43 43 44 44 44 45 45 46 47 48 48 49 50 50 51 51 52 53 53 54 54 55 55 56 56 57 57 58 58 59 60 60 61 61 61 62 63 63 64 65 66 66 66 67 67 67 68 68 68 68 68 68 68 68 67 66 65 63 61 60 59 57 54 51 50 50 50
33 34 36 37 37 38 38 38 39 39 39 40 40 40 40 40 40 41 41 41 42 42 42 42 43 43 43 44 45 45 46 47 47 48 48 49 49 50 51 52 52 53 53 54 54 55 55 56 56 57 58 59 59 59 59 59 60 61 61 62 62 63 63 64 64 64 65 65 65 66 65 65 65 66 66 65 65 64 62 61 61 60 56 53 52 51 52
29 30 31 32 33 34 35 36 36 36 37 37 36 37 37 37 37 38 38 38 39 39 39 39 40 40 40 41 41 42 42 43 44 45 46 47 48 48 49 50 50 51 52 53 54 55 56 57 58 58 59 59 58 58 58 58 59 59 60 61 61 62 63 63 63 64 65 65 65 66 66 65 65 65 65 64 63 63 62 62 62 61 60 59 57 54 54
22 24 26 27 28 29 30 31 31 32 32 33 33 33 33 34 35 35 36 36 37 37 36 37 38 38 39 39 40 41 42 43 44 45 46 48 49 50 51 52 53 54 56 57 58 59 60 60 59 58 57 57 56 57 58 59 60 61 61 62 62 63 63 64 64 65 66 66 67 67 67 67 67 67 66 65 63 62 62 62 62 61 61 62 61 59 57
16 17 19 20 22 23 24 25 26 27 28 28 29 30 31 32 33 34 35 36 37 38 38 39 40 41 42 43 45 46 47 48 49 50 51 52 53 54 55 56 57 58 58 58 59 58 57 56 55 55 55 55 55 55 56 56 57 57 56 56 57 57 58 59 60 61 61 62 63 64 66 67 67 67 67 66 65 64 63 62 60 60 61 61 61 60 60
14 14 16 16 17 19 19 20 21 22 23 24 26 27 28 29 30 31 32 33 34 35 36 37 38 40 41 43 44 45 47 48 49 49 50 51 51 51 52 52 53 53 53 53 53 53 52 52 51 50 49 48 47 46 45 45 45 44 45 45 46 47 48 50 51 52 53 53 54 55 56 59 61 63 64 64 65 65 64 63 62 60 59 59 58 58 59
15 15 16 17 17 18 18 18 19 20 21 22 23 24 25 26 26 27 28 29 30 31 32 33 34 35 36 38 39 40 41 42 43 43 44 44 44 45 46 46 47 47 47 48 47 47 46 44 42 39 37 35 34 34 33 33 33 34 35 36 36 37 38 40 42 44 45 46 47 47 48 50 51 53 55 57 60 61 62 62 62 61 59 57 55 55 56
16 16 17 17 17 18 18 18 19 20 21 22 22 23 23 24 25 25 26 27 27 28 29 30 31 32 34 35 36 36 37 38 38 39 39 39 39 40 40 40 40 40 39 38 36 35 33 31 29 28 28 27 27 27 27 27 28 30 31 31 32 32 33 34 36 37 39 41 42 43 44 45 46 46 46 48 50 54 56 58 59 60 59 57 53 50 49
15 16 16 17 17 17 18 19 19 20 21 21 22 22 23 23 24 24 25 25 26 27 27 28 29 30 31 32 33 33 34 33 33 33 32 32 32 32 31 30 29 28 27 26 25 25 24 23 23 24 24 23 22 23 24 26 27 28 28 27 27 28 29 31 32 34 36 37 39 40 41 42 43 44 44 43 43 45 48 51 52 54 55 55 53 51 47
14 15 15 16 16 16 17 18 19 20 20 20 21 21 21 22 22 23 23 23 24 24 25 25 26 27 28 29 29 29 28 27 26 25 24 23 22 21 20 20 20 20 20 20 20 20 20 19 18 19 19 19 19 21 23 24 23 22 21 22 24 26 29 31 33 35 36 37 38 39 40 41 41 42 44 43 41 40 41 43 45 46 48 49 50 51 50
14 14 15 15 16 16 17 17 18 19 19 19 19 19 20 20 20 20 21 21 21 22 23 24 25 25 26 26 25 23 21 19 18 17 16 14 14 14 14 14 14 16 17 17 17 17 16 15 15 16 17 17 18 20 20 18 17 17 19 22 26 29 32 35 38 39 39 39 39 38 39 40 40 39 41 42 41 38 36 37 39 41 43 44 44 45 46
15 15 15 15 15 16 16 17 17 17 17 18 18 18 18 18 18 18 19 19 20 21 22 23 23 22 22 20 18 16 14 13 12 10 9 9 9 10 9 9 10 11 12 13 13 13 13 13 14 15 16 15 16 17 17 15 15 18 21 25 28 32 36 39 41 40 39 37 36 36 36 38 38 37 37 39 40 36 33 32 33 35 37 39 40 39 39
15 15 15 15 16 16 16 17 17 17 17 17 17 17 17 16 17 17 18 19 20 21 21 20 19 18 16 14 12 11 9 8 7 7 6 5 5 4 4 6 8 8 8 9 10 11 12 12 13 13 13 13 14 16 16 16 18 20 22 26 30 35 38 39 36 33 29 27 26 27 30 33 34 34 34 35 34 32 29 28 28 30 31 33 36 37 35
15 16 16 16 16 16 17 17 17 17 17 17 17 16 16 16 16 17 18 19 19 19 18 16 15 14 13 11 10 9 7 6 6 6 5 3 1 2 4 6 7 9 10 11 11 12 12 12 12 11 10 11 13 14 15 17 18 19 21 25 30 34 36 32 27 23 21 18 16 16 18 24 27 28 28 29 29 27 25 25 25 26 27 30 34 35 31
16 16 16 17 17 17 17 18 18 17 17 17 16 16 16 16 16 17 17 18 18 17 15 13 12 12 11 11 11 10 8 6 6 6 5 3 2 3 4 5 7 9 10 12 13 14 13 12 10 10 10 10 12 13 15 16 16 18 20 24 28 32 31 27 22 20 19 16 13 11 11 13 18 21 24 25 26 26 25 23 22 22 24 29 34 35 31
16 16 17 17 17 18 18 18 18 18 17 17 16 16 16 16 16 16 17 16 15 14 12 11 11 11 12 12 12 11 9 7 7 6 6 6 4 3 4 4 6 7 9 10 12 13 13 11 9 8 9 10 12 14 15 15 15 17 19 22 26 29 29 26 21 19 17 14 11 10 9 10 13 17 21 24 26 27 25 22 20 19 20 24 32 37 37
15 16 17 18 18 18 18 18 18 18 17 17 16 16 15 15 16 16 15 14 13 12 11 10 11 12 12 13 13 11 10 9 8 8 8 8 7 6 5 5 5 6 8 9 11 12 12 12 11 10 9 10 12 14 14 14 14 16 17 20 24 26 27 26 23 19 15 12 9 6 6 10 14 17 21 25 27 27 24 20 19 19 18 19 25 34 38
14 16 17 18 18 18 19 19 18 18 17 17 16 16 15 15 15 15 14 13 12 11 11 10 11 12 13 13 13 12 11 10 9 9 10 9 8 7 6 6 6 6 8 9 10 11 11 11 12 13 13 13 12 12 13 13 14 14 15 17 20 23 24 24 24 22 18 13 10 5 1 6 12 17 21 24 25 25 23 21 20 19 18 19 21 26 32
14 16 17 18 19 19 19 19 19 18 17 17 16 15 15 15 14 14 13 12 12 12 11 11 12 12 13 14 15 14 12 11 11 11 11 9 7 6 6 7 7 7 8 9 10 11 11 11 12 13 14 14 13 13 13 12 13 13 14 15 16 19 21 22 22 23 23 19 14 9 5 4 7 12 17 21 22 22 22 21 20 18 18 21 21 21 25
14 16 17 18 18 19 18 19 19 18 18 17 16 15 15 15 14 13 12 12 12 12 12 12 12 12 13 15 16 15 15 14 14 13 12 10 8 6 6 7 8 7 8 9 10 10 10 11 11 12 13 13 14 14 14 13 13 13 13 13 13 15 17 19 20 22 22 22 20 16 9 4 6 9 12 15 18 19 20 20 20 19 19 20 20 19 21
15 15 16 17 18 18 18 18 19 18 18 17 16 15 15 14 14 13 12 13 13 13 13 13 13 13 14 16 17 17 17 16 16 16 16 14 11 9 7 7 7 7 7 8 9 9 9 9 10 11 11 12 13 13 15 15 14 13 13 13 13 13 14 16 17 19 20 21 22 20 16 10 4 8 11 12 14 16 16 15 16 18 19 18 17 17 20
14 15 15 16 17 18 18 18 18 18 18 17 16 15 15 14 14 13 13 13 14 14 14 13 13 14 15 16 18 19 19 18 18 17 18 18 16 12 8 6 6 6 6 7 7 7 6 7 9 10 10 11 12 13 14 15 15 15 14 13 13 13 13 14 14 16 17 19 20 20 19 16 10 6 10 12 14 15 14 12 13 14 14 14 16 19 21
14 14 15 16 16 17 17 18 18 18 17 17 16 15 15 15 14 14 14 14 14 15 15 14 14 14 15 17 19 19 19 19 18 17 15 14 14 12 8 6 5 6 6 7 7 6 5 5 7 8 9 10 11 12 13 14 15 16 17 16 15 14 13 13 12 12 13 15 17 18 18 18 16 13 10 10 11 12 11 10 10 10 11 12 15 18 19
14 14 15 15 16 16 16 17 17 17 17 17 16 15 15 15 15 15 14 14 15 15 15 15 14 14 14 15 17 17 17 17 16 14 10 8 9 8 6 5 5 6 6 7 8 7 6 5 6 7 8 9 10 11 12 13 14 15 16 17 18 17 16 14 12 10 10 11 13 15 15 16 17 18 18 16 15 13 12 11 10 10 10 11 13 14 15
14 14 14 15 16 16 16 16 17 17 17 16 16 16 16 16 16 15 15 15 15 15 15 15 14 14 13 13 14 14 14 14 13 11 9 8 8 7 7 6 6 7 8 8 9 9 7 6 7 7 7 8 9 10 11 12 13 14 15 16 17 18 19 18 15 12 10 8 9 10 12 13 15 17 17 16 15 13 12 11 11 10 10 11 12 12 13
15 14 14 15 16 16 16 17 17 17 17 16 16 17 17 17 17 16 16 15 14 14 14 15 15 14 13 13 12 12 12 12 11 10 9 8 8 8 8 8 8 9 9 9 10 9 8 7 7 8 8 8 9 9 10 11 11 12 13 14 15 16 17 19 19 17 14 12 9 8 9 9 10 11 12 11 9 8 8 8 9 8 9 10 11 12 12
15 14 14 15 16 16 16 17 17 17 17 17 17 17 18 18 17 17 17 16 14 14 14 15 15 14 13 12 11 11 11 11 11 10 10 9 9 9 10 10 10 10 10 10 10 9 8 8 8 8 9 9 9 10 10 11 11 12 12 13 14 15 15 16 17 17 17 16 14 11 9 7 7 6 6 6 6 6 6 6 6 6 7 8 10 11 12
16 15 14 15 15 16 16 16 17 17 17 17 18 18 18 18 18 18 17 17 15 14 14 14 15 15 14 12 11 11 11 11 11 11 12 12 12 12 12 12 12 11 11 10 10 9 8 8 9 9 9 9 10 10 10 11 11 12 12 12 13 14 14 15 15 15 15 16 16 15 13 11 8 6 4 3 2 3 3 4 4 4 4 5 7 10 11
16 16 15 15 15 15 16 17 17 17 16 17 19 19 18 19 19 19 19 18 17 16 15 15 15 15 15 13 12 12 12 12 12 13 13 14 14 14 14 13 13 12 11 11 11 10 9 9 9 9 9 9 10 10 11 11 11 11 11 12 12 13 13 14 14 14 14 14 14 14 14 14 12 11 8 6 3 1 1 3 3 4 4 5 7 8 9
17 17 17 16 15 15 15 17 18 18 17 17 18 19 19 20 20 21 21 20 19 18 17 16 16 16 16 15 14 14 14 15 15 15 15 15 16 16 16 15 14 14 13 12 12 11 10 10 10 10 9 9 10 10 11 11 11 11 11 11 12 12 13 13 13 13 14 14 13 12 12 12 11 11 11 10 9 7 5 3 2 3 5 7 9 10 11
17 17 17 17 16 15 15 16 17 18 18 18 18 19 20 20 21 21 22 22 22 21 20 18 18 17 17 17 16 16 16 17 18 18 17 18 18 18 18 17 17 16 15 14 13 12 12 11 10 10 10 9 9 10 10 11 11 11 11 11 12 12 12 13 13 13 13 13 13 13 12 12 11 10 9 9 9 9 8 7 6 4 2 3 6 9 11
17 17 18 17 17 16 16 15 15 17 18 18 18 19 19 20 21 23 24 24 24 23 22 22 21 20 20 19 18 18 18 19 20 20 20 20 20 20 20 19 18 18 17 16 15 14 13 12 11 11 10 9 9 9 10 10 10 10 11 11 11 12 12 13 13 13 13 13 13 13 12 12 12 11 10 9 8 8 8 7 7 6 5 4 3 4 6
17 17 17 17 17 17 16 16 15 16 17 18 19 19 19 20 21 24 25 25 25 25 25 25 24 23 23 22 22 21 21 21 22 22 22 22 22 22 22 21 20 19 18 18 17 16 15 14 14 13 12 10 10 9 9 9 9 10 10 10 11 11 12 13 13 13 13 13 13 12 12 11 11 11 11 10 10 9 8 7 7 6 6 5 5 5 6
16 16 16 16 17 17 17 17 17 17 17 18 19 19 20 20 21 24 25 26 27 27 28 28 27 27 26 26 25 25 24 24 24 24 24 24 24 24 23 23 22 21 20 19 19 19 18 17 16 16 15 14 12 12 11 11 11 10 11 11 11 11 11 12 12 12 13 13 13 13 12 12 11 11 11 10 10 10 9 9 9 8 8 8 8 8 9
Wind_Direction
237 237 236 234 232 231 233 235 237 237 237 237 237 237 238 237 234 235 237 236 237 240 241 239 238 238 239 241 241 240 239 238 239 242 243 245 246 246 244 242 241 241 241 242 244 247 250 250 247 245 245 247 250 251 253 254 255 256 257 258 257 257 257 257 257 255 253 253 254 256 259 261 262 263 264 265 266 266 266 267 268 269 270 270 270 270 269
237 236 236 233 230 231 234 236 236 236 236 236 237 237 238 239 237 237 238 239 238 240 240 240 240 240 241 242 242 241 241 240 240 241 243 244 245 245 245 243 242 243 244 245 247 250 252 253 250 248 247 248 251 253 255 257 258 260 262 263 265 266 267 267 266 265 264 262 261 262 262 263 264 265 266 267 268 269 269 269 269 268 268 267 267 267 266
245 242 238 234 230 231 234 236 237 237 238 238 239 239 240 241 242 241 242 242 242 241 241 241 241 242 242 242 242 242 242 242 242 242 243 244 245 245 245 245 245 245 247 250 252 253 253 252 249 248 248 249 251 253 254 255 257 258 260 262 264 266 267 267 268 267 267 267 266 266 266 266 267 267 268 268 269 270 271 271 271 271 270 268 267 265 264
253 252 250 242 236 235 235 236 237 238 239 240 241 242 243 243 244 244 244 244 244 243 243 243 243 244 244 245 244 244 243 244 244 244 244 244 243 243 244 246 247 249 250 252 254 256 256 255 253 251 251 252 253 255 256 256 256 257 258 259 261 262 263 264 264 265 265 266 266 266 266 267 267 268 268 269 269 269 270 271 271 271 271 270 268 266 263
258 255 254 253 247 242 240 239 241 242 242 241 241 242 243 244 245 246 246 245 245 244 243 244 244 244 245 246 247 247 247 248 249 249 248 245 243 242 244 246 248 250 253 254 256 257 258 259 259 259 258 258 258 259 260 260 260 260 259 260 260 261 261 262 262 263 264 264 265 265 265 266 267 268 269 269 268 268 269 269 270 269 270 269 268 266 265
258 254 251 251 249 246 244 244 245 246 246 246 246 245 245 246 246 246 246 246 245 244 243 243 243 244 245 246 247 247 248 249 251 252 251 248 246 247 249 250 251 252 254 255 256 256 258 260 261 262 263 263 262 262 262 261 261 261 261 262 262 262 262 262 263 263 264 264 265 265 266 267 268 268 267 265 266 268 269 269 269 268 268 267 267 268 267
255 251 247 247 247 248 249 246 245 245 245 246 247 247 247 248 248 247 246 246 244 243 243 243 242 243 243 244 245 246 247 249 250 251 249 247 249 253 255 254 254 255 255 255 255 257 259 261 262 262 263 263 263 264 264 263 263 263 263 264 264 264 265 266 267 267 266 266 266 266 266 266 267 266 263 262 265 269 270 269 269 269 268 268 267 267 266
250 249 249 249 248 251 251 248 245 245 245 245 244 243 242 243 244 245 244 243 243 242 243 243 243 243 241 239 238 239 243 247 250 251 250 249 253 259 261 258 255 254 254 254 256 259 261 262 262 262 263 263 264 265 266 266 266 267 267 268 268 269 270 271 271 270 269 268 267 266 265 264 264 262 262 264 268 270 270 268 267 269 270 269 265 262 261
250 252 254 253 251 250 251 251 249 247 246 245 244 243 240 239 239 239 240 241 241 242 242 243 243 244 243 239 236 234 236 240 244 247 249 250 252 255 257 257 255 254 255 257 260 261 262 262 262 262 263 264 265 265 267 268 269 270 271 272 272 273 273 273 272 271 270 269 269 268 266 265 264 263 264 266 268 269 268 267 268 269 270 268 263 255 251
254 255 256 256 254 252 252 254 254 250 247 246 246 245 244 242 241 241 242 243 244 245 246 246 247 247 246 243 241 239 238 238 239 240 243 246 247 246 244 245 248 249 251 254 256 258 260 261 261 261 262 263 265 267 269 271 272 272 273 273 274 274 274 273 271 271 270 270 270 269 268 267 266 264 265 265 266 266 267 268 269 270 269 265 259 253 249
256 257 258 258 256 254 252 252 251 250 248 246 246 246 245 245 245 245 245 246 247 247 249 250 251 251 250 249 248 246 245 244 244 243 244 246 249 248 245 245 247 248 249 250 251 252 255 258 260 263 265 266 268 270 272 273 273 273 273 274 274 274 274 273 271 270 269 268 268 268 268 267 265 263 263 263 264 265 266 268 270 269 267 263 258 253 251
256 257 257 254 253 253 252 250 248 246 246 245 245 246 246 245 246 247 247 247 248 249 251 253 253 253 253 252 251 250 249 249 249 248 249 250 251 251 251 251 252 253 254 255 256 257 258 259 261 264 266 268 269 270 271 272 272 272 273 273 273 273 273 272 271 270 269 268 267 267 266 266 264 263 263 264 265 265 267 268 269 267 265 262 258 254 252
252 253 253 251 250 250 250 249 246 244 244 244 243 245 245 245 246 247 249 250 252 254 256 258 258 257 256 254 253 253 252 252 252 251 252 252 253 253 254 254 254 254 255 257 258 259 260 261 262 264 265 267 268 268 269 269 270 270 271 272 272 272 272 271 271 270 269 268 268 267 267 266 265 264 264 265 265 266 266 266 266 264 262 260 257 254 253
247 249 250 251 250 248 248 249 249 249 249 248 247 248 248 247 247 249 252 255 258 260 260 260 259 258 257 256 255 254 254 254 254 254 254 254 255 255 256 256 256 256 257 258 259 260 261 262 263 265 266 267 267 268 268 269 269 270 270 270 270 271 271 271 271 270 270 269 269 268 268 268 267 267 266 266 265 265 264 264 263 262 260 258 257 256 256
247 248 249 250 251 251 251 252 254 255 255 254 254 255 254 254 253 254 256 258 259 260 260 260 259 258 257 257 256 256 256 256 256 256 256 256 256 257 257 258 258 259 259 260 261 261 262 263 264 265 266 267 268 268 269 269 270 270 270 270 270 270 270 270 270 271 270 270 270 270 270 269 269 269 268 268 267 266 265 263 262 261 260 258 257 257 258
248 248 249 250 251 252 252 253 254 255 256 256 256 255 256 256 257 257 257 257 257 257 257 257 258 258 258 258 258 258 258 258 258 258 258 258 258 259 259 260 261 262 263 263 264 264 265 265 265 266 266 266 267 268 268 269 270 270 270 270 270 270 270 270 270 270 270 270 270 270 270 270 269 269 269 269 268 267 266 264 263 262 261 260 258 257 258
248 248 249 251 252 252 252 253 254 255 256 258 258 258 257 258 258 258 258 257 257 256 256 256 257 257 258 258 259 259 259 259 260 260 260 260 261 261 262 262 263 263 264 265 265 265 266 266 266 266 266 266 267 268 268 269 269 269 269 270 270 270 270 270 269 269 269 269 269 269 270 270 269 269 268 268 267 266 266 266 265 263 262 261 261 260 259
249 249 250 251 251 252 252 253 254 255 256 257 259 259 259 259 259 259 259 258 258 258 257 257 257 257 258 259 259 260 260 261 261 262 262 262 263 263 263 264 264 265 265 266 266 267 267 267 268 268 268 268 268 268 268 269 269 268 268 268 269 269 269 269 269 269 269 268 268 268 268 268 268 267 267 267 266 265 265 265 264 263 261 260 260 259 258
250 250 251 251 251 252 252 253 254 255 256 257 258 259 259 260 260 260 260 260 261 260 260 260 260 260 261 261 261 262 262 262 262 262 263 263 263 264 264 265 265 266 266 266 266 266 267 267 267 267 267 268 268 268 268 268 269 269 269 269 269 270 270 270 270 269 269 268 268 267 267 266 266 265 264 264 263 263 262 262 261 261 260 257 255 254 255
251 251 251 252 252 253 253 254 255 255 256 257 258 259 259 259 260 260 260 261 261 262 262 262 262 262 262 262 263 263 263 264 264 264 264 264 264 265 265 266 266 267 268 268 269 269 269 270 270 271 271 272 273 273 273 273 273 273 273 272 272 271 270 270 269 269 268 268 267 266 265 264 264 263 262 261 260 260 259 258 258 258 257 254 252 251 253
255 254 253 253 254 255 255 256 257 257 258 259 260 260 261 261 262 263 263 264 265 265 266 266 266 267 267 267 267 268 268 269 270 270 270 270 271 271 271 271 272 273 274 274 275 275 276 277 277 277 278 278 278 278 278 277 277 276 275 275 274 273 272 271 270 269 268 267 266 265 264 263 262 262 261 260 258 258 257 256 255 255 254 253 252 251 252
257 256 256 255 255 256 256 256 257 258 258 259 259 260 259 260 260 261 262 263 264 264 264 264 265 265 266 265 265 266 266 266 267 267 268 269 270 271 272 272 273 274 274 275 275 276 277 277 278 278 278 278 279 279 278 278 277 277 276 275 275 274 273 271 270 269 268 267 265 264 263 262 261 260 259 259 258 256 255 255 254 253 252 251 251 250 250
258 259 259 257 257 257 257 256 256 256 256 257 257 257 257 257 257 258 258 258 259 259 259 260 261 261 262 262 262 263 264 265 265 266 267 268 269 270 271 272 273 273 274 274 275 276 276 277 278 279 279 279 279 278 278 277 277 276 276 275 275 274 273 272 271 270 269 267 266 265 264 262 261 260 259 258 256 255 254 253 252 251 251 251 250 250 249
260 260 259 257 255 255 255 255 255 254 254 255 255 255 256 256 257 258 258 259 260 261 261 262 262 263 263 264 265 266 266 267 268 269 270 270 271 272 273 274 274 274 275 275 276 277 278 278 279 279 279 278 277 276 276 276 277 277 277 277 277 277 276 275 274 273 271 269 268 267 265 264 262 260 259 258 256 255 254 252 250 249 249 249 249 249 248
258 258 258 257 257 258 258 258 258 257 257 257 257 257 257 258 259 260 261 261 262 263 264 265 265 266 266 267 267 268 269 269 270 271 272 273 274 274 275 275 276 276 277 277 278 278 278 278 278 278 277 276 276 277 278 279 280 281 281 281 281 281 280 279 278 276 274 272 270 267 266 265 264 262 260 258 256 254 253 252 250 248 246 246 246 247 247
258 258 258 259 259 259 259 259 259 259 259 259 259 260 260 261 262 262 263 264 264 265 266 266 267 267 268 268 269 270 270 271 272 273 274 275 275 276 276 277 277 278 278 278 278 278 278 279 278 277 277 278 280 281 282 283 283 283 283 283 284 283 282 281 279 278 276 274 271 268 265 264 263 263 261 259 256 254 252 250 249 247 245 243 241 241 243
261 259 258 258 258 257 257 257 257 257 258 259 260 261 261 262 262 263 264 264 265 265 266 267 267 268 269 269 270 271 272 274 275 276 276 276 277 277 278 278 278 278 277 277 279 280 281 281 280 278 278 281 283 284 285 286 286 285 285 286 287 287 287 286 284 282 280 276 273 270 266 263 261 260 260 259 257 255 252 249 247 246 244 241 237 234 234
264 263 261 260 258 257 256 256 257 258 259 260 261 262 262 263 264 264 265 266 267 267 269 270 271 272 273 273 274 275 277 277 277 278 278 278 279 280 279 279 278 277 278 279 281 282 282 279 276 276 279 282 284 287 289 288 287 286 289 292 294 295 295 294 292 290 286 281 275 270 266 263 259 256 256 256 255 254 253 250 246 243 241 238 235 232 228
266 265 262 261 259 258 257 257 258 259 260 262 263 263 264 265 266 267 268 270 271 273 275 275 276 277 277 277 278 279 279 278 277 277 277 277 276 273 271 273 276 277 278 281 282 282 282 279 275 277 280 283 289 293 293 289 286 289 295 299 301 302 302 301 298 294 289 283 277 269 264 261 257 254 252 252 252 251 252 251 247 242 239 235 232 231 228
268 266 264 262 260 259 259 260 260 262 263 264 266 266 268 269 270 271 273 275 277 279 280 280 279 278 277 277 277 276 273 271 270 268 264 262 261 259 265 282 290 285 279 279 281 281 282 281 278 279 281 287 297 301 297 290 289 296 302 306 309 310 310 307 302 296 290 284 277 268 260 256 253 250 248 249 248 247 248 250 246 241 237 232 227 225 223
269 268 266 264 262 262 261 262 263 264 266 267 268 269 271 272 274 276 278 279 281 282 281 279 276 273 270 269 267 260 255 252 248 241 239 248 260 271 300 325 326 319 314 310 306 302 298 291 284 281 283 293 305 307 300 296 300 306 312 316 318 318 317 313 306 301 296 289 280 269 257 250 247 244 243 244 244 242 242 244 242 237 231 225 219 213 210
271 270 268 267 266 264 264 264 264 266 267 268 270 271 273 275 277 279 281 282 282 280 277 272 265 259 258 256 248 238 231 227 221 218 222 239 304 350 353 349 349 354 357 356 348 339 327 311 295 288 290 300 310 313 311 309 312 317 322 325 327 327 327 323 318 315 310 303 295 283 262 246 239 236 236 237 235 231 232 236 234 230 225 218 209 204 204
272 270 269 268 268 267 266 266 266 267 268 269 271 272 274 276 278 280 281 282 280 275 267 258 250 248 249 245 234 224 220 221 221 222 228 241 300 2 8 6 5 5 8 11 8 0 348 330 309 298 299 308 318 324 324 322 324 328 331 334 337 340 342 340 335 331 327 317 307 299 276 247 232 227 226 225 221 218 222 227 225 221 219 212 203 199 202
274 272 270 269 269 268 268 267 267 268 268 269 270 272 274 276 279 281 282 280 274 265 255 246 242 243 243 238 230 224 225 231 238 245 249 252 268 312 348 6 8 4 3 7 8 5 360 352 337 319 312 318 326 328 328 331 336 337 338 342 348 353 357 357 350 342 339 335 322 297 264 235 222 218 215 212 209 210 214 218 217 215 216 213 206 203 204
275 273 272 271 270 269 269 269 268 268 269 269 270 272 274 277 279 280 280 275 265 254 244 239 239 241 240 234 229 228 230 235 241 250 255 254 258 277 306 334 355 357 354 353 354 356 359 3 5 1 350 341 333 328 328 338 345 343 343 352 359 3 6 9 6 0 355 355 352 324 247 216 207 203 202 202 204 206 207 208 206 204 208 212 212 210 211
276 274 273 272 272 272 272 271 270 269 269 269 270 271 274 277 278 278 276 268 254 244 240 237 237 239 237 231 225 224 227 232 238 244 249 253 258 273 294 311 326 341 345 343 340 342 349 359 10 15 11 2 348 336 335 344 350 348 350 359 8 12 14 17 19 19 17 16 17 23 121 188 191 193 196 199 202 203 204 202 197 196 206 216 216 214 216
277 274 273 273 274 274 274 273 273 271 269 268 268 270 273 276 276 274 270 258 245 239 239 238 237 238 236 229 224 223 226 232 237 238 241 249 261 278 299 312 317 326 336 337 333 333 341 354 6 13 13 10 5 357 352 351 351 352 356 2 9 14 18 20 23 26 28 28 31 39 69 135 171 186 196 201 202 199 196 194 189 192 207 218 220 220 222
278 276 275 275 275 274 274 274 273 271 268 266 266 268 271 273 273 270 263 250 239 237 239 240 241 240 236 228 224 224 227 233 236 234 233 240 254 269 291 311 318 320 326 330 329 329 337 349 359 5 8 10 12 12 8 3 357 355 358 2 7 12 16 19 22 25 29 31 33 36 47 91 156 175 185 193 195 190 186 187 188 193 206 219 227 231 227
280 278 277 276 276 275 274 273 272 269 266 264 263 265 268 269 269 265 257 245 237 235 239 242 243 243 239 231 225 226 232 237 238 236 236 242 249 256 272 299 317 322 321 321 324 328 335 345 356 1 3 6 12 16 17 15 11 5 2 2 5 9 12 17 22 25 27 30 33 35 39 52 110 168 174 173 173 173 175 185 196 204 212 223 227 219 206
281 279 278 277 275 274 272 271 270 268 264 261 261 262 264 265 264 261 253 244 238 236 240 242 243 243 241 234 229 231 237 242 246 251 256 255 248 244 252 280 306 318 317 312 313 320 331 345 357 2 2 4 9 15 17 18 18 18 15 11 8 8 11 16 24 28 30 31 32 36 41 48 62 120 164 169 169 170 176 190 204 208 210 213 207 197 191
282 279 277 276 275 273 272 271 269 267 263 260 259 259 259 260 260 257 251 245 241 240 241 242 241 240 239 236 233 234 240 246 252 262 267 253 234 229 240 268 292 307 310 304 299 303 317 340 354 360 2 4 8 12 16 18 20 23 24 24 21 16 13 14 21 30 35 34 34 38 45 54 63 78 107 140 156 163 168 176 182 183 185 189 193 192 189
282 279 277 276 275 273 271 270 269 267 262 258 256 256 256 255 255 254 251 247 244 242 242 244 243 240 237 234 234 236 243 250 255 261 260 239 223 228 246 264 276 288 293 290 288 290 301 325 343 348 353 1 5 8 12 16 19 23 27 28 28 28 27 24 22 28 37 41 41 42 50 65 78 86 93 103 114 122 127 131 133 136 146 163 178 185 184
281 280 277 276 275 273 270 269 268 265 262 257 254 253 251 249 249 250 249 247 245 244 243 244 244 242 238 235 235 239 246 253 256 254 248 241 241 250 257 260 267 276 281 281 283 285 293 309 323 329 338 348 355 359 2 7 13 20 25 26 27 29 32 33 33 32 35 44 50 51 56 73 94 104 107 107 109 111 114 119 124 126 131 142 154 165 174
280 279 276 274 273 272 269 268 266 264 260 255 251 248 247 245 244 245 246 245 245 245 244 243 242 241 239 237 237 241 248 252 253 249 244 240 239 245 252 257 262 267 271 273 275 279 287 299 309 318 328 336 342 346 352 356 1 10 17 21 24 26 30 33 36 37 37 40 47 56 64 77 97 114 122 126 128 129 132 137 143 150 156 160 162 168 176
277 276 274 272 271 271 269 267 266 264 261 256 251 247 245 243 241 241 242 243 243 244 245 242 238 236 234 233 233 236 240 243 243 241 239 235 232 236 243 249 252 256 261 265 269 274 282 292 300 308 319 327 332 337 342 346 353 359 6 11 15 20 24 27 30 34 37 40 42 47 56 69 86 105 122 134 140 144 149 155 161 168 177 183 187 191 194
275 274 272 269 269 270 270 268 266 264 261 257 252 248 245 242 240 239 239 240 240 242 243 241 236 231 228 226 227 228 230 232 231 230 230 229 230 231 234 239 244 248 252 256 262 267 273 280 291 300 309 316 323 329 333 337 343 351 356 1 6 11 16 20 22 24 28 33 37 40 43 49 57 68 84 113 148 165 172 176 177 180 188 197 202 203 204
274 274 272 269 267 266 265 266 266 264 261 257 254 250 245 240 237 236 236 236 238 238 238 237 235 231 225 219 218 222 225 226 227 227 228 228 229 229 231 235 239 242 246 250 255 260 265 273 282 291 299 306 314 321 326 331 335 341 347 353 357 2 7 12 15 17 19 21 25 29 32 36 40 46 51 53 48 14 278 256 246 240 239 238 229 220 215
272 273 272 271 268 264 262 261 263 263 261 257 254 251 248 242 237 234 233 234 235 236 235 234 234 232 226 219 217 220 224 227 228 228 230 232 233 234 234 236 238 239 242 246 251 255 260 268 275 281 289 299 308 313 318 324 329 333 339 344 349 354 359 3 6 10 13 14 15 16 18 21 25 30 34 37 39 39 35 19 320 260 244 239 235 231 227
271 271 272 272 270 267 264 261 260 261 261 258 253 250 248 245 240 236 233 232 233 234 234 233 231 230 227 224 221 222 226 229 230 230 231 235 237 238 239 240 241 241 242 245 248 252 257 263 270 275 282 290 300 308 313 317 322 328 333 337 342 346 351 354 358 2 4 5 6 7 7 7 7 9 11 13 16 20 24 27 26 16 337 255 237 232 229
271 270 271 272 272 271 269 265 260 258 259 259 256 252 248 245 241 237 235 232 231 232 233 233 231 228 227 226 226 227 230 233 234 234 235 236 238 240 242 243 244 245 245 247 248 250 254 258 264 270 275 282 290 298 304 310 316 322 327 331 336 340 344 348 352 355 358 359 0 1 0 359 358 357 356 355 354 353 354 358 2 3 0 344 299 261 243
270 269 270 271 272 273 272 270 266 260 256 256 257 256 251 245 241 238 236 234 232 231 232 233 232 230 228 227 227 228 231 234 238 239 240 240 241 242 244 245 246 247 249 251 252 254 256 259 261 264 268 273 279 285 292 299 305 311 317 322 327 331 336 339 343 346 349 351 353 355 355 354 353 351 348 346 343 338 332 327 324 323 322 316 300 280 262
273 272 272 272 273 273 272 270 268 264 258 255 254 254 253 248 243 240 238 236 233 232 232 232 232 232 231 230 229 228 229 232 236 240 242 243 244 245 247 248 248 249 251 253 256 259 261 262 264 265 266 268 271 275 280 285 290 295 301 307 313 317 321 326 331 334 338 341 343 346 348 349 349 348 346 342 338 334 328 321 312 303 295 288 279 270 260
Height
5664 5665 5667 5670 5671 5672 5674 5676 5678 5679 5681 5682 5684 5685 5686 5688 5689 5690 5690 5692 5694 5695 5696 5698 5699 5700 5701 5702 5703 5704 5705 5705 5706 5707 5707 5708 5709 5710 5711 5712 5713 5713 5714 5715 5716 5717 5717 5718 5719 5719 5720 5720 5720 5720 5720 5720 5721 5722 5722 5723 5724 5725 5726 5727 5728 5729 5730 5731 5732 5732 5733 5733 5734 5734 5734 5735 5735 5735 5735 5736 5736 5735 5735 5735 5735 5735 5734
5660 5661 5663 5665 5667 5668 5670 5671 5673 5675 5676 5678 5680 5681 5682 5683 5685 5686 5687 5688 5690 5692 5693 5695 5696 5697 5698 5699 5700 5701 5702 5703 5703 5704 5705 5705 5706 5707 5708 5709 5709 5710 5711 5712 5713 5713 5714 5715 5716 5716 5717 5717 5717 5717 5717 5718 5718 5718 5719 5719 5720 5720 5721 5722 5723 5724 5725 5726 5727 5728 5729 5729 5730 5730 5731 5731 5731 5731 5731 5731 5731 5731 5731 5731 5730 5730 5730
5657 5658 5659 5661 5663 5664 5665 5667 5668 5670 5672 5674 5676 5677 5679 5680 5681 5682 5683 5685 5686 5688 5689 5691 5692 5693 5695 5696 5696 5697 5698 5699 5700 5700 5701 5702 5702 5703 5704 5705 5705 5706 5707 5708 5709 5709 5710 5711 5712 5713 5713 5714 5714 5714 5714 5715 5715 5715 5715 5716 5716 5716 5717 5718 5719 5719 5720 5721 5722 5723 5724 5724 5725 5725 5726 5726 5726 5726 5726 5726 5726 5726 5726 5725 5725 5725 5724
5653 5655 5656 5657 5659 5660 5661 5662 5664 5666 5668 5670 5671 5673 5674 5676 5677 5678 5680 5681 5682 5684 5685 5687 5688 5690 5691 5692 5693 5693 5694 5695 5695 5696 5696 5696 5697 5698 5699 5700 5701 5702 5703 5704 5705 5705 5706 5707 5707 5708 5709 5709 5710 5710 5710 5711 5711 5711 5712 5712 5713 5713 5713 5714 5714 5715 5715 5716 5717 5718 5718 5719 5719 5720 5720 5720 5721 5721 5721 5721 5721 5721 5720 5719 5719 5719 5719
5650 5651 5652 5653 5655 5656 5657 5659 5661 5662 5663 5665 5667 5668 5670 5671 5673 5674 5675 5677 5678 5679 5681 5682 5684 5685 5686 5688 5689 5690 5690 5691 5691 5690 5689 5690 5691 5692 5694 5695 5696 5697 5698 5699 5700 5701 5701 5702 5703 5703 5704 5705 5705 5706 5706 5706 5707 5707 5707 5708 5708 5708 5708 5709 5709 5710 5710 5711 5711 5712 5713 5713 5714 5714 5714 5714 5714 5715 5716 5716 5716 5715 5715 5714 5714 5714 5714
5647 5648 5649 5650 5651 5652 5654 5657 5658 5658 5659 5660 5662 5664 5665 5667 5668 5669 5670 5672 5673 5674 5676 5678 5679 5680 5682 5683 5685 5686 5687 5687 5687 5686 5687 5687 5687 5688 5689 5690 5690 5691 5692 5693 5694 5695 5696 5697 5698 5698 5698 5699 5700 5700 5701 5701 5701 5701 5701 5702 5702 5702 5702 5703 5703 5704 5704 5705 5705 5706 5706 5707 5707 5707 5707 5708 5708 5709 5710 5710 5710 5710 5710 5709 5709 5709 5709
5643 5645 5646 5646 5647 5649 5651 5653 5653 5654 5655 5656 5657 5659 5660 5662 5663 5665 5666 5667 5668 5669 5671 5672 5674 5675 5677 5678 5679 5681 5682 5683 5683 5683 5685 5685 5684 5683 5685 5685 5686 5687 5687 5688 5688 5689 5690 5691 5692 5692 5692 5693 5693 5694 5694 5695 5695 5695 5695 5695 5696 5696 5696 5696 5697 5697 5698 5698 5698 5699 5699 5700 5701 5701 5701 5701 5702 5703 5704 5704 5705 5705 5705 5705 5704 5704 5703
5640 5642 5642 5643 5644 5646 5647 5648 5649 5650 5651 5652 5653 5654 5656 5657 5659 5660 5661 5663 5664 5665 5666 5667 5668 5669 5671 5673 5674 5675 5677 5678 5679 5679 5681 5681 5680 5679 5679 5680 5680 5681 5682 5682 5683 5683 5684 5685 5685 5686 5686 5686 5687 5687 5688 5688 5688 5689 5689 5689 5689 5690 5690 5690 5690 5690 5690 5691 5691 5692 5693 5693 5694 5694 5695 5695 5696 5696 5697 5698 5699 5700 5700 5700 5700 5700 5699
5637 5638 5638 5639 5641 5642 5643 5644 5645 5646 5647 5648 5649 5650 5651 5653 5654 5655 5657 5658 5659 5660 5661 5663 5664 5665 5666 5668 5669 5670 5671 5673 5674 5675 5676 5676 5676 5677 5676 5675 5675 5676 5677 5677 5677 5677 5677 5678 5678 5678 5679 5679 5679 5680 5681 5681 5682 5682 5682 5682 5683 5683 5683 5683 5683 5683 5683 5684 5684 5685 5686 5686 5687 5688 5688 5689 5689 5690 5691 5691 5692 5693 5694 5694 5694 5694 5694
5633 5634 5634 5636 5637 5638 5639 5641 5641 5642 5643 5644 5645 5646 5647 5649 5650 5651 5652 5653 5655 5656 5657 5658 5659 5660 5660 5662 5664 5665 5667 5668 5669 5670 5670 5669 5670 5672 5672 5671 5671 5672 5672 5672 5672 5671 5671 5671 5671 5671 5672 5672 5673 5673 5674 5674 5675 5675 5676 5676 5675 5675 5676 5676 5676 5677 5677 5677 5677 5678 5679 5679 5680 5680 5681 5682 5682 5682 5683 5684 5685 5686 5686 5687 5687 5687 5687
5629 5630 5630 5631 5632 5634 5635 5636 5637 5638 5638 5639 5640 5641 5643 5645 5646 5647 5648 5649 5650 5652 5652 5653 5654 5654 5655 5657 5659 5660 5661 5662 5663 5663 5663 5663 5664 5665 5666 5666 5666 5666 5666 5667 5667 5666 5665 5665 5665 5665 5665 5666 5666 5667 5667 5667 5667 5668 5668 5668 5668 5668 5668 5669 5669 5669 5670 5670 5670 5671 5671 5672 5673 5673 5674 5674 5675 5675 5676 5676 5677 5678 5679 5680 5680 5680 5680
5624 5625 5626 5626 5627 5629 5631 5631 5632 5633 5634 5635 5636 5637 5639 5641 5642 5642 5644 5645 5646 5647 5648 5649 5649 5649 5650 5652 5653 5654 5655 5656 5657 5657 5657 5657 5658 5658 5659 5659 5660 5660 5660 5660 5660 5660 5659 5659 5659 5659 5659 5659 5659 5659 5660 5660 5660 5660 5661 5660 5660 5660 5660 5660 5660 5661 5661 5662 5662 5663 5663 5664 5665 5665 5666 5667 5667 5668 5668 5668 5669 5670 5671 5672 5673 5673 5673
5619 5620 5621 5622 5623 5625 5626 5627 5627 5628 5629 5630 5631 5632 5635 5636 5636 5637 5639 5639 5640 5642 5643 5643 5644 5644 5645 5646 5647 5648 5649 5649 5650 5651 5651 5651 5651 5651 5652 5652 5652 5652 5652 5652 5652 5652 5652 5652 5652 5652 5652 5652 5652 5652 5652 5652 5652 5652 5652 5652 5652 5652 5652 5652 5652 5652 5652 5652 5653 5653 5654 5655 5656 5657 5657 5658 5659 5659 5660 5660 5661 5662 5663 5664 5665 5665 5665
5615 5616 5617 5617 5618 5620 5622 5622 5623 5624 5625 5625 5627 5628 5630 5631 5631 5632 5633 5634 5635 5636 5637 5637 5638 5638 5639 5640 5641 5641 5642 5642 5643 5644 5644 5644 5644 5644 5645 5645 5645 5645 5645 5645 5645 5645 5645 5645 5644 5644 5644 5644 5643 5643 5643 5643 5643 5643 5644 5644 5643 5643 5643 5643 5643 5643 5643 5643 5643 5643 5644 5644 5645 5646 5647 5648 5649 5650 5651 5652 5652 5653 5654 5655 5656 5657 5657
5610 5611 5611 5611 5612 5615 5616 5616 5617 5618 5619 5620 5622 5623 5624 5625 5625 5627 5627 5628 5629 5629 5630 5631 5631 5632 5633 5633 5634 5634 5635 5635 5636 5636 5637 5637 5637 5637 5637 5637 5637 5637 5637 5637 5637 5637 5637 5637 5636 5636 5636 5635 5635 5635 5634 5634 5634 5634 5635 5634 5634 5634 5634 5633 5633 5633 5633 5633 5633 5634 5634 5634 5635 5636 5637 5638 5639 5640 5642 5643 5644 5644 5645 5647 5648 5648 5649
5604 5605 5605 5605 5607 5609 5609 5610 5611 5612 5613 5614 5616 5617 5618 5619 5620 5620 5621 5622 5623 5623 5624 5624 5625 5625 5626 5626 5627 5627 5628 5628 5629 5629 5630 5630 5630 5630 5630 5630 5630 5630 5630 5629 5629 5629 5629 5628 5628 5628 5627 5627 5627 5627 5626 5626 5626 5626 5625 5625 5625 5624 5624 5624 5623 5623 5623 5623 5623 5624 5624 5624 5626 5626 5627 5628 5630 5631 5632 5633 5635 5636 5637 5638 5638 5639 5640
5598 5599 5599 5600 5602 5603 5603 5604 5605 5606 5606 5608 5609 5610 5611 5612 5613 5614 5615 5616 5616 5617 5618 5618 5619 5619 5619 5620 5620 5620 5621 5621 5622 5622 5622 5622 5623 5623 5623 5623 5623 5623 5622 5622 5621 5621 5620 5620 5619 5619 5619 5618 5618 5618 5617 5617 5617 5617 5616 5616 5616 5615 5615 5614 5614 5613 5613 5613 5613 5614 5614 5614 5615 5616 5617 5619 5621 5622 5622 5623 5625 5627 5628 5629 5630 5630 5631
5592 5593 5594 5595 5596 5597 5598 5598 5599 5600 5600 5601 5602 5603 5604 5605 5606 5607 5608 5608 5609 5610 5611 5611 5612 5612 5613 5613 5613 5613 5614 5614 5614 5614 5614 5615 5615 5615 5615 5615 5615 5614 5613 5613 5613 5612 5611 5611 5610 5610 5609 5609 5609 5609 5609 5608 5608 5607 5607 5606 5606 5606 5605 5604 5603 5603 5603 5603 5603 5603 5604 5604 5605 5606 5607 5608 5610 5612 5613 5614 5616 5617 5619 5621 5622 5622 5623
5587 5588 5588 5590 5590 5591 5592 5593 5593 5594 5595 5596 5596 5597 5597 5598 5599 5600 5600 5601 5602 5603 5604 5604 5605 5606 5606 5606 5606 5606 5606 5606 5606 5607 5606 5606 5607 5607 5606 5606 5606 5606 5605 5604 5604 5604 5603 5602 5602 5601 5601 5600 5600 5600 5600 5599 5598 5598 5597 5596 5596 5595 5594 5593 5592 5592 5591 5591 5592 5592 5592 5593 5593 5594 5596 5598 5599 5601 5604 5605 5606 5608 5610 5613 5614 5615 5615
5582 5583 5583 5584 5585 5586 5587 5587 5588 5589 5590 5590 5591 5591 5592 5592 5593 5594 5594 5595 5596 5596 5597 5597 5598 5599 5599 5599 5598 5598 5598 5598 5598 5599 5598 5599 5599 5599 5598 5598 5598 5597 5597 5596 5595 5595 5594 5594 5593 5592 5592 5591 5591 5590 5590 5589 5588 5587 5586 5585 5584 5584 5583 5582 5582 5581 5580 5580 5580 5580 5581 5581 5581 5582 5584 5586 5588 5591 5594 5596 5597 5598 5601 5603 5605 5607 5606
5577 5578 5578 5579 5580 5580 5581 5582 5583 5583 5584 5585 5585 5586 5586 5586 5587 5588 5588 5589 5589 5590 5590 5590 5591 5591 5591 5591 5591 5590 5590 5590 5590 5590 5590 5590 5590 5590 5590 5590 5589 5589 5588 5587 5587 5586 5585 5585 5584 5583 5583 5582 5581 5580 5580 5579 5577 5576 5575 5574 5573 5572 5571 5571 5570 5570 5569 5569 5569 5568 5569 5570 5570 5571 5572 5575 5577 5580 5582 5584 5586 5589 5591 5592 5594 5597 5598
5573 5573 5574 5575 5575 5576 5576 5577 5578 5578 5579 5579 5580 5580 5581 5581 5582 5582 5583 5583 5584 5584 5584 5585 5585 5585 5585 5585 5585 5584 5584 5584 5584 5584 5584 5583 5583 5583 5583 5582 5582 5581 5580 5579 5579 5578 5577 5576 5575 5575 5574 5573 5572 5571 5570 5568 5567 5565 5564 5563 5562 5561 5560 5559 5558 5558 5557 5557 5557 5556 5557 5558 5558 5559 5561 5563 5566 5569 5571 5573 5576 5579 5580 5582 5584 5587 5589
5570 5570 5570 5571 5571 5571 5572 5572 5573 5573 5574 5574 5575 5575 5576 5576 5577 5577 5578 5578 5578 5579 5579 5579 5580 5580 5580 5579 5579 5578 5578 5578 5578 5577 5577 5577 5576 5576 5575 5575 5574 5573 5572 5571 5570 5569 5569 5568 5567 5567 5566 5565 5563 5562 5560 5558 5556 5555 5554 5553 5552 5550 5549 5547 5547 5546 5546 5545 5545 5544 5545 5546 5546 5547 5549 5552 5555 5557 5559 5562 5566 5568 5570 5572 5575 5578 5580
5567 5567 5567 5567 5568 5568 5568 5568 5569 5569 5569 5570 5570 5571 5571 5571 5572 5572 5573 5573 5573 5574 5574 5574 5574 5574 5574 5573 5573 5572 5572 5571 5571 5571 5570 5570 5570 5569 5568 5567 5566 5565 5564 5563 5563 5562 5561 5561 5560 5559 5558 5556 5554 5553 5551 5550 5548 5547 5546 5544 5543 5542 5540 5538 5537 5536 5535 5535 5535 5534 5534 5534 5535 5536 5538 5541 5543 5545 5548 5551 5554 5557 5560 5563 5566 5569 5571
5564 5564 5564 5564 5564 5564 5565 5565 5565 5565 5566 5566 5566 5567 5567 5567 5568 5568 5568 5569 5569 5569 5569 5569 5569 5569 5568 5567 5567 5567 5566 5566 5565 5565 5564 5564 5563 5562 5561 5560 5559 5558 5557 5556 5556 5555 5554 5553 5553 5552 5550 5548 5547 5546 5545 5544 5543 5541 5539 5538 5537 5535 5533 5531 5529 5527 5527 5526 5526 5526 5525 5524 5525 5527 5528 5530 5532 5534 5536 5540 5543 5546 5550 5555 5558 5561 5563
5561 5561 5561 5561 5561 5562 5562 5562 5562 5562 5562 5562 5562 5563 5563 5563 5564 5564 5564 5564 5564 5564 5564 5564 5564 5563 5563 5562 5562 5561 5561 5560 5560 5559 5559 5558 5557 5556 5555 5554 5553 5552 5551 5550 5549 5548 5548 5547 5547 5545 5543 5542 5542 5542 5540 5539 5538 5536 5534 5533 5531 5529 5527 5525 5523 5521 5519 5518 5517 5517 5517 5517 5517 5518 5519 5521 5522 5524 5526 5529 5532 5535 5539 5545 5551 5554 5558
5558 5558 5558 5558 5558 5558 5558 5558 5558 5558 5558 5558 5559 5559 5559 5560 5560 5560 5560 5560 5560 5560 5560 5560 5559 5559 5558 5557 5557 5556 5556 5555 5555 5554 5553 5553 5552 5551 5550 5549 5548 5547 5546 5545 5544 5544 5543 5543 5542 5541 5539 5539 5539 5538 5536 5535 5533 5531 5529 5528 5526 5524 5522 5519 5517 5515 5513 5511 5510 5509 5509 5509 5510 5510 5511 5513 5514 5516 5517 5520 5522 5525 5529 5535 5541 5546 5552
5555 5555 5555 5555 5555 5555 5555 5555 5555 5555 5555 5555 5555 5555 5555 5556 5555 5555 5555 5555 5555 5555 5555 5555 5554 5554 5553 5552 5552 5551 5551 5551 5550 5549 5549 5548 5548 5547 5546 5545 5545 5544 5543 5542 5541 5541 5540 5540 5538 5537 5536 5536 5535 5534 5532 5531 5529 5527 5526 5524 5521 5519 5516 5514 5511 5509 5506 5504 5503 5502 5501 5501 5502 5503 5504 5505 5507 5509 5510 5512 5515 5517 5520 5525 5531 5535 5541
5552 5552 5552 5552 5552 5552 5552 5551 5551 5551 5551 5551 5551 5551 5552 5552 5551 5551 5551 5551 5551 5550 5550 5550 5549 5549 5548 5548 5547 5547 5547 5547 5546 5546 5546 5545 5545 5544 5544 5543 5542 5541 5540 5539 5539 5538 5537 5536 5535 5535 5534 5533 5532 5531 5529 5527 5526 5524 5522 5520 5517 5514 5511 5507 5503 5500 5497 5495 5493 5493 5493 5493 5494 5496 5497 5498 5500 5503 5504 5506 5508 5510 5513 5517 5522 5527 5533
5549 5549 5549 5549 5549 5549 5549 5548 5548 5548 5548 5548 5548 5548 5548 5548 5548 5547 5547 5547 5546 5546 5546 5545 5545 5544 5544 5544 5544 5544 5544 5544 5544 5544 5544 5543 5543 5543 5542 5541 5540 5539 5538 5537 5536 5535 5535 5534 5533 5532 5531 5531 5530 5528 5526 5525 5523 5521 5519 5516 5513 5509 5505 5500 5495 5490 5487 5484 5483 5482 5483 5484 5486 5488 5490 5492 5494 5498 5500 5501 5503 5505 5507 5511 5515 5520 5526
5547 5546 5546 5546 5546 5546 5545 5545 5545 5545 5545 5545 5545 5545 5545 5544 5544 5544 5543 5543 5543 5542 5542 5541 5541 5541 5541 5541 5542 5542 5542 5542 5542 5542 5542 5542 5541 5540 5539 5539 5538 5537 5535 5534 5533 5533 5532 5531 5530 5529 5529 5528 5527 5525 5524 5522 5520 5518 5516 5513 5509 5504 5498 5492 5486 5482 5478 5476 5474 5473 5474 5476 5478 5481 5484 5486 5490 5494 5496 5497 5498 5500 5503 5506 5510 5515 5521
5543 5543 5543 5543 5543 5542 5542 5542 5542 5542 5542 5542 5542 5541 5541 5541 5541 5540 5540 5540 5539 5539 5538 5538 5539 5539 5539 5539 5540 5540 5541 5541 5541 5541 5541 5541 5540 5539 5538 5537 5536 5535 5534 5532 5531 5531 5530 5529 5528 5527 5526 5525 5524 5523 5521 5519 5517 5515 5513 5509 5505 5500 5493 5486 5481 5477 5474 5471 5469 5468 5468 5469 5472 5476 5479 5482 5487 5490 5492 5493 5495 5497 5499 5502 5506 5512 5518
5540 5540 5540 5539 5539 5539 5539 5539 5539 5539 5539 5539 5538 5538 5538 5538 5538 5537 5537 5536 5536 5536 5536 5536 5536 5537 5537 5538 5538 5539 5539 5540 5540 5540 5539 5539 5538 5537 5537 5536 5535 5534 5533 5532 5531 5530 5529 5527 5526 5525 5524 5523 5522 5520 5519 5517 5515 5513 5510 5507 5503 5497 5490 5483 5479 5475 5472 5469 5467 5466 5466 5467 5469 5472 5475 5479 5483 5486 5488 5490 5492 5495 5497 5500 5504 5508 5513
5537 5537 5537 5536 5536 5536 5536 5536 5536 5536 5536 5535 5535 5535 5535 5535 5535 5534 5534 5533 5533 5533 5533 5534 5534 5535 5535 5536 5536 5537 5538 5538 5538 5538 5538 5538 5537 5536 5536 5535 5534 5533 5532 5531 5530 5530 5528 5527 5525 5524 5522 5521 5520 5518 5517 5515 5513 5511 5508 5505 5501 5495 5489 5483 5479 5475 5471 5468 5466 5465 5465 5466 5468 5470 5473 5476 5480 5482 5485 5488 5491 5493 5496 5499 5502 5505 5507
5535 5534 5533 5533 5533 5533 5532 5532 5533 5532 5532 5532 5532 5532 5532 5532 5532 5531 5531 5531 5530 5531 5531 5532 5532 5533 5533 5534 5534 5535 5536 5536 5536 5536 5536 5536 5536 5535 5535 5534 5533 5532 5531 5530 5530 5529 5528 5526 5525 5523 5521 5519 5518 5517 5515 5514 5512 5510 5507 5504 5500 5495 5490 5485 5480 5476 5472 5469 5467 5465 5465 5466 5467 5469 5472 5475 5477 5480 5484 5487 5489 5492 5495 5498 5500 5503 5505
5532 5531 5530 5530 5530 5529 5529 5529 5529 5529 5529 5529 5529 5529 5529 5529 5529 5528 5528 5528 5528 5528 5529 5530 5530 5531 5531 5532 5532 5533 5534 5534 5534 5535 5535 5535 5535 5534 5534 5533 5532 5531 5530 5530 5529 5528 5527 5526 5524 5522 5520 5519 5517 5516 5514 5513 5511 5509 5506 5503 5500 5496 5492 5487 5483 5479 5475 5471 5469 5467 5467 5467 5468 5470 5472 5474 5477 5480 5483 5486 5488 5491 5494 5496 5498 5500 5502
5529 5528 5527 5527 5526 5526 5526 5526 5526 5526 5526 5526 5526 5526 5526 5526 5526 5526 5526 5526 5526 5526 5527 5527 5528 5528 5529 5530 5530 5531 5532 5532 5533 5533 5533 5533 5533 5533 5533 5532 5531 5530 5530 5529 5528 5527 5526 5524 5523 5521 5520 5518 5517 5515 5514 5512 5510 5508 5506 5503 5500 5497 5493 5490 5486 5482 5478 5475 5472 5470 5469 5469 5470 5471 5473 5475 5478 5480 5483 5485 5488 5490 5492 5494 5495 5497 5499
5526 5525 5524 5524 5524 5523 5523 5523 5523 5523 5523 5523 5523 5523 5523 5523 5523 5523 5523 5523 5524 5524 5525 5525 5526 5526 5527 5527 5528 5529 5530 5530 5531 5531 5531 5531 5532 5532 5531 5531 5530 5529 5529 5528 5527 5526 5525 5524 5522 5521 5520 5519 5517 5515 5513 5511 5509 5508 5505 5503 5500 5498 5495 5492 5489 5485 5482 5479 5476 5473 5472 5472 5472 5473 5475 5476 5478 5481 5483 5485 5487 5489 5490 5492 5493 5495 5496
5522 5522 5522 5521 5521 5520 5520 5520 5520 5520 5520 5520 5520 5520 5520 5520 5520 5520 5521 5521 5522 5522 5523 5523 5524 5524 5525 5525 5526 5527 5527 5528 5528 5529 5529 5530 5530 5530 5530 5530 5529 5528 5528 5527 5526 5525 5524 5523 5522 5521 5520 5519 5517 5515 5514 5512 5509 5507 5505 5503 5501 5498 5496 5493 5491 5488 5485 5482 5479 5477 5475 5474 5473 5474 5476 5477 5479 5481 5483 5485 5487 5488 5490 5491 5492 5494 5495
5519 5519 5519 5518 5518 5517 5517 5517 5517 5517 5517 5517 5517 5517 5517 5518 5518 5518 5518 5519 5519 5520 5521 5521 5522 5522 5522 5523 5524 5524 5525 5526 5527 5527 5527 5528 5528 5528 5528 5528 5528 5527 5527 5526 5525 5525 5524 5523 5522 5521 5520 5519 5517 5516 5514 5512 5510 5508 5506 5503 5501 5499 5496 5494 5492 5490 5488 5486 5483 5481 5478 5477 5475 5475 5476 5478 5480 5482 5484 5485 5487 5488 5489 5491 5492 5494 5496
5516 5516 5516 5515 5515 5514 5514 5514 5514 5514 5514 5514 5514 5515 5515 5515 5515 5515 5516 5516 5517 5518 5519 5519 5519 5520 5520 5521 5521 5522 5523 5524 5524 5525 5525 5525 5525 5526 5526 5526 5526 5526 5525 5525 5525 5524 5523 5522 5521 5520 5519 5518 5517 5516 5514 5513 5511 5509 5506 5504 5502 5500 5498 5496 5494 5492 5490 5489 5487 5485 5482 5480 5479 5478 5479 5480 5482 5483 5485 5486 5488 5489 5490 5492 5494 5496 5498
5513 5513 5512 5512 5512 5512 5511 5511 5511 5511 5511 5511 5512 5512 5512 5512 5513 5513 5514 5514 5515 5515 5516 5517 5517 5518 5518 5519 5519 5520 5521 5521 5522 5523 5523 5523 5523 5524 5524 5524 5524 5524 5524 5524 5524 5523 5522 5522 5521 5520 5519 5518 5517 5516 5515 5513 5512 5510 5508 5505 5503 5501 5499 5497 5495 5494 5492 5491 5489 5488 5487 5485 5484 5483 5483 5484 5485 5486 5487 5489 5490 5491 5492 5494 5495 5497 5499
5510 5510 5509 5509 5509 5508 5508 5508 5508 5508 5508 5509 5509 5509 5509 5510 5510 5511 5511 5512 5512 5513 5514 5514 5515 5516 5516 5516 5517 5517 5518 5519 5520 5520 5521 5521 5522 5522 5522 5522 5522 5523 5523 5522 5522 5522 5521 5521 5520 5520 5519 5518 5517 5516 5515 5513 5512 5510 5509 5507 5505 5503 5501 5499 5497 5496 5494 5493 5491 5491 5490 5489 5488 5488 5488 5488 5489 5490 5490 5491 5492 5493 5494 5496 5497 5498 5500
5506 5506 5506 5506 5506 5505 5505 5505 5505 5505 5505 5506 5506 5506 5506 5507 5508 5508 5509 5509 5510 5511 5511 5512 5513 5513 5514 5514 5515 5515 5516 5517 5517 5518 5519 5519 5520 5520 5520 5521 5521 5521 5521 5521 5521 5521 5520 5520 5520 5519 5518 5517 5517 5516 5515 5513 5512 5511 5509 5508 5506 5505 5503 5501 5499 5498 5496 5495 5494 5493 5492 5492 5491 5491 5491 5491 5492 5492 5493 5493 5494 5495 5496 5497 5498 5499 5500
5502 5503 5503 5503 5502 5502 5502 5502 5502 5502 5502 5503 5503 5503 5504 5504 5505 5506 5506 5507 5508 5509 5509 5510 5511 5511 5512 5512 5513 5514 5514 5515 5515 5516 5517 5517 5518 5518 5519 5519 5519 5519 5520 5520 5520 5520 5519 5519 5518 5518 5517 5517 5516 5515 5514 5513 5512 5511 5509 5508 5507 5505 5504 5503 5501 5500 5499 5497 5496 5495 5494 5493 5493 5493 5493 5493 5494 5494 5494 5495 5495 5496 5497 5498 5499 5500 5501
5499 5499 5500 5500 5499 5499 5499 5499 5499 5499 5499 5499 5500 5500 5501 5502 5503 5504 5504 5505 5506 5506 5507 5508 5509 5509 5510 5510 5511 5512 5513 5513 5514 5514 5515 5515 5516 5516 5517 5517 5518 5518 5518 5518 5518 5518 5518 5518 5517 5517 5516 5516 5515 5514 5514 5513 5512 5511 5509 5508 5507 5506 5505 5504 5502 5501 5500 5499 5498 5497 5496 5495 5495 5494 5494 5494 5494 5495 5495 5495 5496 5496 5497 5498 5498 5499 5500
5495 5496 5496 5496 5496 5496 5496 5496 5496 5496 5496 5497 5497 5497 5498 5499 5500 5501 5502 5503 5503 5504 5505 5506 5507 5507 5508 5509 5509 5510 5511 5511 5512 5513 5513 5514 5514 5515 5515 5516 5516 5516 5517 5517 5517 5517 5517 5516 5516 5516 5515 5515 5514 5514 5513 5512 5511 5510 5509 5508 5507 5506 5505 5504 5503 5502 5501 5501 5500 5499 5498 5497 5496 5496 5495 5495 5495 5495 5495 5495 5495 5496 5496 5497 5498 5498 5499
5492 5492 5492 5493 5493 5493 5493 5493 5493 5493 5493 5494 5494 5495 5495 5496 5497 5498 5499 5500 5501 5502 5503 5504 5504 5505 5506 5507 5507 5508 5509 5510 5510 5511 5511 5512 5513 5513 5513 5514 5514 5515 5515 5515 5515 5515 5515 5515 5515 5515 5514 5514 5513 5513 5512 5511 5511 5510 5509 5508 5508 5507 5506 5505 5504 5503 5502 5502 5501 5500 5499 5499 5498 5498 5497 5496 5496 5496 5495 5495 5495 5495 5496 5496 5497 5497 5498
5488 5488 5488 5489 5489 5490 5490 5490 5490 5490 5490 5491 5491 5492 5492 5493 5494 5495 5496 5497 5498 5499 5500 5501 5502 5503 5504 5505 5505 5506 5507 5508 5508 5509 5510 5510 5511 5511 5512 5512 5512 5513 5513 5514 5514 5514 5514 5514 5513 5513 5513 5513 5512 5512 5511 5511 5510 5510 5509 5508 5507 5507 5506 5505 5504 5504 5503 5502 5502 5501 5500 5499 5499 5498 5498 5498 5497 5497 5496 5496 5496 5496 5496 5496 5496 5497 5497
5485 5485 5485 5485 5486 5486 5486 5487 5487 5487 5487 5488 5488 5489 5489 5490 5491 5492 5492 5493 5495 5496 5497 5498 5499 5500 5501 5502 5503 5504 5504 5505 5506 5507 5507 5508 5509 5509 5510 5510 5511 5511 5511 5512 5512 5512 5512 5512 5512 5512 5512 5512 5511 5511 5510 5510 5509 5509 5508 5508 5507 5507 5506 5505 5504 5504 5503 5502 5502 5501 5501 5500 5499 5499 5498 5498 5498 5497 5497 5497 5496 5496 5496 5496 5496 5497 5497
5482 5482 5482 5482 5482 5482 5483 5483 5483 5484 5484 5484 5485 5485 5486 5487 5487 5488 5488 5490 5491 5493 5494 5495 5496 5497 5498 5499 5500 5501 5502 5503 5503 5504 5505 5506 5506 5507 5507 5508 5508 5509 5509 5510 5510 5510 5510 5510 5510 5511 5510 5510 5510 5510 5510 5509 5509 5508 5508 5507 5507 5506 5506 5505 5504 5504 5503 5503 5502 5501 5501 5500 5500 5499 5498 5498 5498 5497 5497 5497 5497 5497 5497 5497 5497 5497 5497
5479 5479 5479 5479 5479 5479 5479 5479 5480 5480 5480 5481 5481 5482 5482 5483 5484 5484 5485 5486 5487 5489 5490 5491 5492 5493 5494 5495 5497 5498 5499 5500 5500 5501 5502 5503 5503 5504 5505 5505 5506 5506 5507 5507 5508 5508 5508 5509 5509 5509 5509 5509 5509 5509 5509 5508 5508 5508 5507 5507 5506 5506 5505 5505 5504 5504 5503 5502 5502 5501 5501 5500 5500 5499 5499 5498 5498 5497 5497 5497 5496 5496 5496 5496 5497 5497 5497